Weather History for KP68 - November, 2013

Change the Weather History Date:

Thursday, November 7, 2013

  Actual Average Record
Temperature  
Mean Temperature 45 °F 38 °F  
Max Temperature 59 °F 54 °F 74 °F (2006)
Min Temperature 31 °F 23 °F 2 °F (1990)
Degree Days  
Heating Degree Days 20 27  
Month to date heating degree days 186 181  
Since 1 July heating degree days 995 1028  
Cooling Degree Days 0 0  
Month to date cooling degree days 0 0  
Year to date cooling degree days 585 288  
Moisture  
Dew Point 25 °F    
Average Humidity 53    
Maximum Humidity 78    
Minimum Humidity 28    
Precipitation  
Precipitation 0.00 in 0.03 in 0.69 in (1969)
Month to date precipitation 0.03 0.23  
Year to date precipitation 6.86 7.84  
Sea Level Pressure  
Sea Level Pressure 30.17 in    
Wind  
Wind Speed 7 mph (SSW)    
Max Wind Speed 15 mph    
Max Gust Speed 18 mph    
T = Trace of Precipitation, MM = Missing Value Source: NWS Daily Summary

Daily Weather History Graph

Daily Weather History Graph

Search for Another Location

Airport or City:

Trip Planner

Search our weather history database for the weather conditions in past years. The results will help you decide how hot, cold, wet, or windy it might be!

Date:

Astronomy

Nov. 07, 2013 Rise Set
Actual Time 6:19 AM PST 4:35 PM PST
Civil Twilight 5:51 AM PST 5:03 PM PST
Nautical Twilight 5:19 AM PST 5:35 PM PST
Astronomical Twilight 4:47 AM PST 6:07 PM PST
Moon 10:31 AM PST (11/7) 8:52 PM PST (11/7)
Length of Visible Light 11h 12m
Length of Day
10h 15m
Waxing Crescent, 24% of the Moon is Illuminated
Nov 7
Waxing Crescent
Nov 9
First Quarter
Nov 17
Full
Nov 25
Last Quarter
Dec 2
New

Hourly Weather History & Observations

Time (PST) Temp. Windchill Dew Point Humidity Pressure Visibility Wind Dir Wind Speed Gust Speed Precip Events Conditions
12:53 AM 33.1 °F 26.1 °F 25.0 °F 72% 30.29 in - SSW 8.1 mph - N/A   Unknown
1:53 AM 30.9 °F 24.3 °F 24.1 °F 76% 30.28 in - SW 6.9 mph - N/A   Unknown
2:53 AM 33.1 °F 25.5 °F 24.1 °F 70% 30.28 in - SSW 9.2 mph - N/A   Unknown
3:53 AM 34.0 °F 27.2 °F 25.0 °F 70% 30.28 in - SW 8.1 mph - N/A   Unknown
4:53 AM 32.0 °F 24.2 °F 25.0 °F 75% 30.28 in - SSW 9.2 mph - N/A   Unknown
5:53 AM 32.0 °F 24.8 °F 25.0 °F 75% 30.29 in - South 8.1 mph - N/A   Unknown
6:53 AM 35.1 °F 29.3 °F 27.0 °F 72% 30.28 in - SSW 6.9 mph - N/A   Unknown
7:53 AM 37.9 °F 30.9 °F 26.1 °F 62% 30.28 in - SSW 10.4 mph - N/A   Unknown
8:53 AM 43.0 °F 40.3 °F 28.9 °F 58% 30.26 in - West 4.6 mph - N/A   Unknown
9:53 AM 46.9 °F - 27.0 °F 46% 30.25 in - ENE 9.2 mph - N/A   Unknown
10:53 AM 50.0 °F - 28.0 °F 43% 30.20 in - ESE 5.8 mph - N/A   Unknown
11:53 AM 55.0 °F - 26.1 °F 33% 30.16 in - West 4.6 mph - N/A   Unknown
12:53 PM 55.9 °F - 24.1 °F 29% 30.12 in - Calm Calm - N/A   Unknown
1:53 PM 57.9 °F - 25.0 °F 28% 30.09 in - SW 4.6 mph - N/A   Unknown
2:53 PM 57.9 °F - 26.1 °F 30% 30.07 in - South 3.5 mph - N/A   Unknown
3:53 PM 54.0 °F - 25.0 °F 33% 30.05 in - SSE 12.7 mph - N/A   Unknown
4:53 PM 48.9 °F - 25.0 °F 39% 30.08 in - SSE 8.1 mph - N/A   Unknown
5:53 PM 44.1 °F 38.6 °F 24.1 °F 45% 30.11 in - SE 10.4 mph - N/A   Unknown
6:53 PM 41.0 °F 36.4 °F 24.1 °F 51% 30.10 in - SW 6.9 mph - N/A   Unknown
7:53 PM 37.0 °F - 24.1 °F 59% 30.12 in - Calm Calm - N/A   Unknown
8:53 PM 37.0 °F 28.9 °F 24.1 °F 59% 30.09 in - SSW 12.7 mph - N/A   Unknown
9:53 PM 39.0 °F 34.0 °F 23.0 °F 53% 30.08 in - SW 6.9 mph - N/A   Unknown
10:53 PM 39.0 °F 35.7 °F 23.0 °F 53% 30.05 in - SW 4.6 mph - N/A   Unknown
11:53 PM 34.0 °F 29.8 °F 23.0 °F 64% 30.06 in - Variable 4.6 mph - N/A   Unknown